Wind_Speed
79 81 83 84 84 84 83 82 80 78 76 74 72 68 66 65 62 59 57 56 57 57 55 57 65 63 60 63 63 63 66 61 56 62 64 60 56 61 59 60 56 54 51 46 46 42 42 49 54 49 44 39 48 57
90 91 91 91 93 93 94 94 93 91 88 85 83 80 77 73 70 68 68 66 65 66 62 65 67 66 67 68 71 72 71 69 67 64 68 67 62 64 65 62 67 62 59 57 52 47 47 55 55 49 46 41 44 52
88 84 82 82 83 85 88 90 91 91 92 91 89 87 84 81 79 76 74 72 72 72 70 70 70 75 75 72 74 75 77 74 73 72 76 80 76 76 78 74 75 72 73 66 59 53 57 56 54 44 42 42 45 48
67 61 58 57 57 57 60 63 68 76 81 83 83 84 83 83 82 79 77 75 73 73 71 72 75 74 74 76 76 75 76 73 74 73 79 83 86 87 84 83 78 79 78 72 68 65 59 57 52 45 43 44 49 52
54 47 44 42 42 40 40 41 43 50 56 65 73 77 77 76 75 75 75 75 75 75 76 76 76 77 74 73 72 71 74 74 76 76 78 82 84 86 87 88 85 86 83 80 78 70 66 58 51 45 44 43 50 55
50 43 38 33 31 29 28 28 29 32 37 44 51 60 68 71 70 67 65 64 65 67 67 66 66 66 66 67 67 67 69 70 72 77 81 83 85 89 90 90 87 91 85 83 81 76 71 65 57 49 43 45 47 55
51 43 35 29 26 21 17 16 17 20 23 28 34 41 48 55 61 61 57 54 54 54 55 56 58 59 59 57 52 50 51 52 54 58 63 72 88 95 93 91 89 91 91 83 83 82 80 74 69 61 53 49 48 50
49 46 41 34 26 20 15 10 7 7 10 15 20 25 32 38 45 47 46 45 44 45 47 48 50 49 44 43 42 44 44 44 47 51 56 62 71 83 88 91 97 95 96 94 88 90 87 82 76 69 64 60 60 58
48 46 42 39 34 29 24 19 13 8 2 4 9 15 21 27 33 37 37 38 39 40 43 41 39 39 38 41 39 38 36 34 37 40 44 50 58 63 73 88 101 102 99 100 100 97 95 90 82 75 65 62 60 56
44 43 43 41 38 34 31 27 23 19 16 14 12 13 15 20 25 29 32 33 37 34 31 33 36 36 33 30 29 29 27 26 27 27 25 32 41 48 54 65 87 106 109 105 105 97 91 90 84 79 73 68 64 64
45 42 39 40 39 35 30 27 25 23 20 16 12 8 9 13 17 21 22 22 24 25 25 24 23 21 19 18 18 16 16 17 16 18 19 22 25 33 42 53 66 92 106 106 98 99 94 89 88 84 80 75 72 70
42 44 42 39 39 38 35 31 26 21 16 11 6 3 3 5 8 9 10 11 12 12 12 12 12 10 7 7 5 5 4 6 8 8 9 12 14 22 31 42 53 68 93 105 103 103 100 93 90 90 89 84 79 78
35 38 38 40 40 38 36 35 33 30 24 16 11 10 7 4 1 3 2 2 5 7 8 11 15 13 13 13 15 17 19 19 15 15 13 10 4 10 22 32 43 56 69 87 100 101 100 98 96 91 90 88 85 81
32 33 35 35 33 34 35 32 29 31 28 28 26 24 20 18 17 16 16 18 21 24 28 29 30 29 32 32 31 30 26 25 25 21 17 13 11 6 8 20 32 43 55 67 84 98 101 100 99 96 91 92 90 86
30 31 32 31 30 27 26 27 26 24 27 22 20 22 19 19 21 22 25 27 30 29 28 31 43 45 43 41 38 35 35 36 35 33 29 26 21 15 11 9 17 28 39 50 61 76 92 100 100 99 97 93 92 92
32 33 33 34 31 26 21 18 19 20 19 20 17 19 21 23 23 23 25 24 25 34 45 44 41 38 38 35 33 35 34 33 33 33 33 29 24 18 13 9 6 12 22 33 43 54 68 83 93 100 100 96 95 95
34 33 34 33 28 24 20 17 13 12 12 11 13 14 16 17 14 16 16 20 41 46 41 42 38 32 27 26 28 30 29 29 28 27 26 28 31 22 12 14 13 1 8 16 25 34 45 58 71 84 94 100 99 97
33 35 37 34 27 20 15 13 12 8 9 9 6 8 8 10 10 9 10 27 48 40 42 36 29 25 27 29 29 26 28 25 27 32 36 39 39 29 15 13 9 8 10 14 16 19 30 41 52 63 75 88 95 100
39 41 41 36 27 21 16 11 9 8 8 8 6 6 7 7 9 7 18 47 41 42 35 26 24 26 29 28 26 27 27 30 32 34 33 33 31 29 23 15 10 10 12 16 24 27 28 31 38 47 59 68 75 87
47 42 43 41 34 27 23 17 15 14 13 14 13 10 10 10 8 14 45 43 39 34 27 24 23 22 27 23 23 21 23 26 30 29 26 27 29 28 25 21 20 17 15 14 14 17 23 29 29 32 37 45 55 66
38 41 40 39 37 35 31 25 25 24 23 23 23 21 19 14 10 29 39 39 32 28 23 20 20 25 22 18 19 24 28 29 24 25 33 35 38 40 35 30 28 23 21 14 12 16 16 14 16 20 24 30 38 45
34 39 33 35 39 42 41 43 46 46 47 48 45 41 35 29 20 15 39 29 33 25 19 14 20 18 20 17 18 19 24 28 27 28 33 34 41 38 35 36 39 37 40 32 18 11 3 2 8 10 11 19 26 29
29 37 32 35 42 39 39 41 42 41 40 38 38 37 35 32 26 10 33 28 29 20 16 14 19 22 17 16 17 18 20 25 26 28 30 32 38 37 45 50 49 44 46 46 44 41 38 29 27 26 24 20 18 14
25 34 34 26 26 26 30 33 33 34 36 38 37 37 33 30 33 33 19 25 23 21 17 12 17 18 13 11 12 16 15 17 20 22 27 29 33 40 54 56 59 56 48 50 56 61 61 60 58 56 56 54 51 52
28 30 32 24 14 18 24 24 24 24 25 26 27 23 22 24 25 21 15 9 8 22 21 14 19 17 12 11 10 10 12 11 15 17 18 19 23 27 37 38 45 52 51 49 49 57 58 61 67 68 67 65 63 63
22 23 23 25 27 18 20 20 19 20 22 16 14 18 20 22 22 21 18 11 3 11 19 18 18 25 17 16 14 11 11 10 7 12 13 14 13 17 19 26 26 38 44 52 57 64 55 55 57 58 54 49 49 52
13 14 16 20 21 21 22 22 23 24 25 22 13 9 16 18 16 13 11 12 8 7 4 17 23 21 22 18 21 15 15 10 11 14 9 4 7 4 14 20 23 23 34 34 28 25 30 37 35 39 37 31 33 36
10 10 10 11 10 12 15 17 18 18 18 18 18 17 14 13 11 8 6 7 7 8 7 12 15 19 21 23 25 24 21 18 16 15 14 12 6 2 6 4 12 18 21 26 24 28 21 14 18 24 22 25 22 21
9 10 10 10 10 10 10 12 12 12 12 11 12 12 13 15 15 13 9 9 8 9 12 11 9 12 16 16 27 29 24 23 21 22 20 20 18 13 15 12 10 16 20 21 25 19 16 18 24 24 23 22 23 16
9 11 13 14 13 14 15 15 14 14 15 16 16 17 18 17 15 17 15 14 14 15 13 11 14 15 14 14 20 28 30 32 33 30 35 29 25 23 18 18 20 17 20 25 24 21 18 19 22 24 26 29 29 27
10 12 14 18 21 20 22 22 21 21 22 22 23 24 25 24 25 26 27 27 26 23 23 20 16 17 19 19 20 21 23 26 28 29 31 30 37 37 34 31 28 25 32 31 32 31 29 29 31 29 28 30 32 35
14 15 13 19 24 24 24 27 27 24 25 27 25 23 25 26 27 27 27 28 29 27 27 27 27 28 26 23 21 20 22 25 26 25 26 28 30 37 45 44 41 39 34 35 42 40 41 41 42 37 39 38 38 40
11 11 13 16 19 24 29 28 27 25 27 25 23 22 23 24 23 20 19 19 19 18 18 20 21 24 27 31 30 28 25 23 23 23 24 27 29 32 36 41 49 53 51 49 43 47 51 49 49 52 49 46 47 48
Wind_Direction
293 290 287 282 278 275 272 269 267 265 264 263 261 259 258 258 257 256 256 255 252 253 252 250 250 254 254 255 257 256 256 255 250 246 251 250 245 245 241 239 238 239 237 235 235 229 225 230 232 224 221 218 220 214
294 290 285 280 276 272 268 266 263 261 260 258 258 258 258 257 255 254 254 255 255 255 254 253 255 257 258 258 259 259 259 258 256 251 251 252 248 247 246 240 236 235 238 238 232 229 226 233 231 220 220 214 218 217
300 293 287 282 277 271 268 265 262 259 258 256 255 254 253 254 254 254 253 254 255 256 256 258 259 259 260 262 262 261 260 259 255 250 246 244 245 244 240 236 233 230 233 233 232 231 231 234 234 224 217 215 222 220
310 304 297 291 285 279 273 267 262 258 255 254 253 251 251 250 250 252 253 254 256 257 259 260 261 264 265 265 266 263 262 259 255 248 246 244 244 242 238 237 235 232 230 231 231 230 232 232 236 222 214 214 221 222
323 317 310 303 297 290 282 273 266 257 253 250 248 248 248 248 248 249 251 253 255 258 260 262 265 265 266 265 263 262 261 259 256 251 246 243 241 239 235 234 232 232 232 229 231 231 232 233 235 225 212 214 223 224
339 334 328 321 313 302 291 279 269 259 251 247 245 243 243 243 245 247 249 252 254 257 259 260 263 263 264 265 265 264 261 257 253 249 245 242 239 234 233 230 230 232 231 228 229 231 230 231 230 230 217 217 222 225
355 356 350 342 337 329 313 293 273 262 249 240 239 238 236 236 239 241 245 249 253 256 258 260 263 264 266 266 261 257 255 253 249 247 246 241 238 236 228 227 228 228 228 229 229 228 229 226 225 224 223 218 228 230
7 8 10 10 7 2 358 346 316 270 243 236 235 230 226 225 228 234 242 246 249 255 258 262 266 265 263 261 262 262 260 260 256 251 249 246 241 238 230 224 225 225 224 225 224 226 226 225 224 224 221 222 222 223
15 19 23 26 29 32 35 39 42 47 84 184 195 196 198 204 214 225 236 243 252 258 263 263 261 264 264 266 265 263 261 258 255 257 255 249 244 238 231 224 221 222 223 222 223 223 223 224 220 223 219 222 229 228
14 18 22 28 32 38 45 51 58 67 79 94 115 144 170 192 210 225 237 248 257 259 257 261 265 266 266 265 262 258 258 257 263 271 269 257 247 240 234 229 221 218 220 221 221 223 224 224 223 222 223 221 225 232
19 22 23 28 32 34 38 42 48 54 62 74 90 126 170 199 217 232 240 248 257 262 264 263 260 261 267 268 264 257 254 255 277 283 283 272 252 238 230 225 220 220 220 223 219 221 224 223 222 222 223 222 219 224
20 26 28 28 31 37 39 39 39 39 42 51 69 108 173 214 229 240 249 255 258 262 270 269 265 261 245 245 247 240 249 248 269 286 280 271 245 231 225 221 220 218 219 221 221 219 221 223 222 221 221 222 220 219
21 23 27 31 32 31 28 31 34 34 37 42 46 46 49 63 87 212 219 100 85 72 84 99 105 109 111 105 96 91 82 72 63 50 32 10 330 228 229 224 219 219 220 222 222 222 220 221 223 223 222 222 223 220
17 18 17 20 24 27 28 26 28 34 41 45 52 57 64 69 87 102 105 105 104 104 105 106 109 107 105 100 94 90 80 71 60 54 47 37 17 343 259 238 229 225 222 222 222 222 222 221 222 224 222 222 223 223
7 5 4 5 6 10 20 23 26 35 44 48 54 70 81 89 95 107 109 109 116 112 113 112 106 98 91 87 84 80 72 63 59 56 49 41 37 22 347 274 246 238 230 228 226 224 222 221 222 222 223 224 224 223
357 352 347 343 342 348 358 14 26 34 46 59 66 74 79 84 91 110 111 116 123 119 115 106 100 94 87 84 80 76 68 61 54 46 37 31 23 16 15 353 292 252 243 233 229 228 227 225 222 221 223 223 223 223
355 356 354 352 345 336 341 356 18 42 54 66 78 85 80 78 102 116 130 137 136 121 116 109 98 83 89 92 84 80 71 64 55 51 42 32 24 11 355 23 22 346 240 240 237 235 231 229 231 229 225 224 224 223
2 357 356 358 353 351 345 348 356 31 65 71 107 94 79 83 75 143 107 146 128 124 118 110 96 97 105 91 87 70 69 71 67 58 54 52 45 34 39 41 10 350 313 299 281 251 240 235 230 227 227 229 227 224
14 9 8 14 17 17 21 29 26 27 38 60 94 135 133 85 63 93 139 142 131 125 112 97 104 110 100 85 81 81 75 68 60 52 47 45 43 36 29 16 350 316 293 269 262 260 258 250 243 238 234 229 226 224
15 13 14 24 27 33 38 46 55 58 56 60 80 91 117 116 92 143 151 136 133 130 111 111 111 96 94 97 91 86 77 65 62 48 44 41 36 30 26 23 20 14 352 328 309 283 267 260 255 246 240 234 232 230
13 13 22 25 33 43 47 58 70 75 75 83 93 96 102 105 110 163 157 147 145 136 129 129 114 113 110 103 90 92 81 66 62 61 56 55 55 50 51 57 60 61 52 28 317 304 297 280 261 249 237 225 221 223
21 18 29 42 59 66 72 77 81 82 82 81 75 72 74 78 83 156 172 155 152 141 150 140 125 130 113 104 95 93 79 71 66 61 63 54 50 53 57 62 67 69 72 77 82 79 57 253 218 190 197 209 214 217
25 25 46 76 79 70 72 74 78 80 82 84 83 73 63 59 57 96 180 181 169 156 157 151 146 133 123 103 99 87 74 82 78 71 60 61 59 65 69 67 63 65 70 74 84 87 85 89 98 105 107 114 122 141
38 37 46 89 84 73 74 79 81 77 80 81 78 70 67 66 55 54 71 181 189 186 182 183 173 148 142 131 112 86 73 85 83 69 62 60 65 77 77 74 69 63 63 63 72 80 88 90 90 92 92 96 100 97
43 45 44 64 103 70 61 70 79 84 78 70 74 76 68 73 71 61 42 50 187 212 218 214 189 177 176 156 124 112 99 84 84 69 63 55 57 87 81 63 68 68 68 69 68 75 76 88 95 93 91 89 84 85
38 40 43 50 51 58 54 58 57 48 44 58 56 58 56 56 53 35 31 69 103 205 205 215 211 192 194 204 203 176 135 131 106 85 56 60 59 77 95 64 59 80 78 84 87 81 81 81 84 86 93 86 80 83
33 42 33 32 39 49 47 45 45 46 46 49 45 39 53 39 29 41 51 27 55 54 347 235 229 222 234 239 219 210 200 195 170 133 113 98 96 57 105 94 85 99 98 96 86 95 93 78 81 91 98 103 96 97
352 359 4 17 28 35 34 32 32 30 29 31 32 35 38 35 27 356 339 12 354 9 330 279 264 264 269 240 231 228 224 220 212 161 155 152 129 162 145 161 115 119 118 119 122 126 117 125 114 113 113 121 116 109
325 333 344 350 350 345 347 340 339 351 2 11 4 357 350 348 346 348 354 350 332 308 305 309 289 288 286 278 239 238 236 234 221 212 195 183 179 190 200 205 191 153 149 149 153 157 159 148 147 146 137 153 156 156
314 326 326 320 326 326 326 326 320 313 316 319 314 312 312 310 305 301 302 302 299 302 316 293 250 250 257 266 261 247 245 249 260 241 225 218 205 199 200 206 200 204 191 180 182 189 193 191 182 173 173 173 181 188
311 314 314 314 321 321 324 322 319 315 311 309 306 303 302 300 297 296 293 289 285 288 290 290 291 276 266 265 259 259 261 261 260 257 248 252 236 225 213 210 214 212 208 204 204 201 209 209 206 201 197 193 194 204
285 294 315 315 316 319 324 330 331 334 331 329 323 313 305 303 302 301 301 299 296 292 286 281 279 282 285 283 284 282 275 270 268 268 262 255 247 242 237 225 224 227 230 226 220 217 217 216 217 222 220 216 213 208
281 290 290 292 301 307 314 321 333 336 333 327 327 325 322 325 333 336 337 334 330 326 316 300 292 283 274 272 275 277 276 276 276 276 273 266 259 254 248 244 238 236 238 239 237 229 228 228 224 224 227 230 230 229
Height
10662 10653 10644 10638 10633 10629 10627 10627 10628 10630 10632 10635 10638 10643 10647 10651 10656 10660 10664 10667 10669 10674 10683 10687 10681 10688 10697 10697 10702 10707 10705 10713 10724 10725 10725 10733 10745 10746 10753 10761 10767 10771 10775 10783 10787 10795 10803 10797 10798 10815 10823 10837 10843 10850
10622 10609 10598 10590 10585 10581 10581 10583 10586 10591 10596 10602 10607 10612 10620 10626 10632 10637 10641 10645 10650 10652 10662 10661 10665 10670 10672 10676 10677 10680 10685 10691 10700 10711 10711 10716 10727 10731 10736 10746 10746 10755 10761 10765 10773 10783 10786 10780 10787 10805 10815 10827 10828 10835
10573 10557 10545 10537 10533 10531 10531 10535 10541 10547 10554 10563 10572 10579 10590 10598 10604 10611 10616 10622 10625 10629 10636 10641 10644 10640 10646 10653 10654 10655 10657 10667 10673 10684 10688 10687 10695 10701 10706 10717 10723 10734 10732 10748 10759 10769 10767 10771 10780 10801 10813 10820 10820 10825
10532 10519 10508 10501 10497 10494 10493 10495 10499 10506 10516 10525 10535 10546 10559 10568 10576 10586 10593 10598 10603 10606 10612 10614 10613 10620 10622 10624 10626 10627 10627 10637 10642 10652 10654 10660 10667 10670 10684 10695 10708 10712 10719 10734 10742 10744 10756 10763 10771 10788 10801 10805 10806 10812
10509 10497 10487 10480 10474 10471 10469 10470 10472 10477 10484 10492 10504 10516 10529 10541 10552 10562 10571 10577 10581 10586 10589 10590 10591 10593 10597 10597 10599 10601 10599 10606 10609 10615 10623 10626 10635 10641 10655 10667 10686 10685 10698 10713 10720 10732 10742 10754 10767 10778 10789 10795 10795 10801
10498 10485 10475 10467 10461 10457 10454 10453 10455 10459 10463 10471 10479 10489 10503 10518 10531 10542 10550 10556 10560 10564 10566 10568 10569 10571 10572 10572 10574 10573 10572 10574 10578 10580 10590 10597 10598 10610 10621 10640 10658 10667 10680 10693 10704 10716 10726 10740 10754 10762 10775 10785 10785 10790
10497 10482 10471 10462 10456 10450 10447 10445 10446 10448 10451 10457 10464 10473 10484 10498 10513 10526 10534 10539 10543 10545 10547 10549 10550 10551 10550 10550 10549 10549 10549 10551 10553 10555 10559 10562 10567 10570 10593 10614 10631 10641 10658 10675 10687 10695 10705 10716 10729 10743 10755 10765 10773 10779
10503 10488 10475 10464 10456 10450 10446 10444 10443 10444 10447 10451 10456 10463 10472 10485 10501 10512 10519 10524 10527 10530 10532 10533 10532 10531 10531 10530 10532 10531 10531 10532 10532 10533 10534 10536 10536 10538 10563 10596 10598 10608 10625 10644 10657 10664 10677 10690 10709 10723 10736 10743 10750 10757
10512 10499 10486 10475 10466 10458 10452 10448 10446 10446 10448 10450 10454 10460 10469 10480 10492 10501 10508 10512 10516 10518 10518 10517 10516 10515 10518 10516 10515 10514 10515 10516 10515 10515 10514 10512 10509 10520 10529 10546 10562 10579 10594 10613 10620 10631 10649 10664 10688 10703 10720 10732 10738 10748
10520 10509 10498 10487 10479 10471 10465 10460 10457 10456 10456 10457 10461 10466 10473 10481 10489 10495 10500 10503 10504 10505 10505 10505 10505 10503 10503 10503 10503 10503 10504 10503 10502 10500 10497 10496 10498 10502 10511 10522 10535 10545 10557 10574 10595 10617 10636 10653 10671 10688 10701 10715 10724 10729
10527 10517 10508 10499 10490 10483 10477 10473 10470 10468 10468 10468 10470 10473 10477 10481 10486 10490 10493 10495 10496 10495 10494 10493 10493 10493 10494 10494 10494 10495 10496 10496 10495 10492 10490 10487 10488 10490 10496 10502 10514 10529 10544 10555 10584 10603 10614 10633 10650 10666 10679 10693 10705 10711
10535 10526 10517 10508 10502 10495 10489 10484 10480 10477 10476 10475 10475 10476 10478 10481 10483 10485 10487 10487 10487 10487 10487 10486 10487 10488 10489 10489 10490 10491 10492 10492 10492 10491 10487 10483 10482 10482 10485 10491 10501 10510 10521 10537 10554 10570 10591 10610 10626 10642 10651 10665 10679 10691
10542 10535 10527 10520 10512 10505 10499 10493 10489 10485 10481 10479 10478 10478 10479 10480 10481 10481 10483 10485 10485 10484 10484 10483 10484 10486 10487 10489 10490 10491 10491 10490 10489 10487 10484 10482 10481 10482 10483 10489 10494 10501 10511 10523 10535 10552 10572 10590 10604 10619 10636 10648 10660 10674
10548 10541 10534 10528 10522 10515 10509 10503 10497 10493 10489 10486 10484 10483 10482 10481 10482 10484 10485 10487 10488 10487 10488 10488 10489 10490 10491 10492 10492 10493 10493 10491 10489 10488 10486 10485 10483 10483 10484 10486 10490 10495 10500 10509 10518 10535 10551 10567 10584 10598 10614 10626 10640 10655
10551 10545 10538 10533 10527 10522 10517 10511 10505 10501 10498 10496 10495 10492 10491 10490 10489 10490 10491 10492 10493 10494 10494 10495 10497 10497 10497 10499 10499 10499 10498 10496 10494 10493 10491 10489 10487 10486 10484 10484 10486 10490 10495 10502 10510 10519 10532 10545 10561 10576 10592 10605 10619 10634
10553 10546 10540 10533 10527 10523 10519 10516 10511 10507 10505 10504 10503 10501 10499 10498 10497 10498 10498 10498 10499 10500 10502 10503 10504 10505 10504 10504 10505 10504 10503 10502 10501 10498 10496 10493 10491 10489 10486 10486 10486 10488 10491 10495 10500 10509 10518 10526 10538 10551 10565 10583 10597 10611
10553 10546 10538 10531 10524 10519 10516 10515 10513 10511 10509 10508 10508 10507 10505 10504 10504 10504 10503 10503 10505 10506 10508 10510 10511 10512 10512 10511 10511 10510 10510 10508 10505 10503 10501 10499 10496 10493 10490 10489 10489 10488 10490 10492 10496 10501 10507 10513 10523 10536 10549 10559 10571 10586
10554 10545 10537 10528 10520 10516 10512 10511 10511 10511 10511 10510 10511 10511 10510 10510 10510 10509 10509 10510 10514 10515 10516 10517 10518 10518 10518 10518 10518 10518 10516 10514 10513 10513 10509 10503 10500 10499 10497 10496 10495 10493 10492 10492 10493 10494 10497 10501 10506 10511 10518 10529 10543 10559
10556 10547 10537 10527 10519 10514 10511 10510 10510 10510 10510 10511 10512 10513 10513 10514 10514 10514 10515 10521 10522 10523 10524 10524 10525 10526 10526 10526 10526 10526 10525 10523 10521 10518 10516 10512 10509 10508 10506 10502 10499 10496 10493 10491 10490 10488 10488 10489 10492 10496 10500 10504 10516 10528
10562 10552 10542 10532 10525 10518 10514 10511 10510 10510 10511 10512 10513 10514 10516 10518 10518 10518 10524 10526 10529 10530 10531 10532 10533 10534 10534 10533 10532 10531 10530 10528 10526 10525 10522 10519 10515 10511 10507 10503 10501 10497 10493 10487 10483 10479 10477 10477 10477 10478 10482 10489 10496 10506
10568 10561 10552 10543 10534 10524 10520 10517 10516 10515 10515 10516 10517 10519 10521 10523 10523 10528 10532 10532 10534 10536 10537 10538 10538 10539 10539 10539 10538 10537 10536 10536 10534 10532 10530 10526 10521 10516 10513 10510 10507 10501 10495 10487 10480 10474 10470 10466 10465 10466 10469 10474 10480 10490
10576 10568 10561 10554 10545 10540 10534 10530 10528 10527 10528 10528 10529 10531 10531 10532 10532 10533 10535 10539 10541 10542 10544 10545 10545 10546 10546 10545 10544 10544 10543 10542 10540 10538 10536 10535 10528 10523 10522 10518 10511 10505 10498 10491 10482 10475 10471 10466 10463 10463 10466 10470 10477 10486
10584 10578 10569 10564 10560 10558 10554 10549 10545 10543 10541 10541 10541 10542 10542 10541 10540 10539 10543 10545 10547 10548 10549 10550 10550 10551 10551 10550 10550 10550 10548 10547 10546 10544 10542 10539 10536 10532 10530 10523 10517 10510 10503 10498 10488 10481 10476 10475 10472 10471 10472 10478 10484 10492
10590 10584 10576 10574 10572 10569 10565 10562 10559 10558 10556 10554 10554 10553 10552 10550 10548 10548 10549 10552 10553 10553 10554 10554 10555 10556 10556 10556 10556 10555 10554 10552 10551 10548 10546 10545 10542 10540 10534 10530 10522 10519 10513 10507 10500 10495 10490 10486 10488 10490 10492 10495 10498 10500
10593 10590 10588 10585 10581 10577 10575 10573 10571 10569 10567 10565 10563 10561 10559 10557 10556 10555 10553 10552 10552 10553 10555 10557 10559 10559 10559 10559 10559 10558 10557 10557 10555 10552 10550 10549 10549 10547 10540 10534 10530 10527 10525 10521 10519 10512 10511 10511 10509 10511 10517 10522 10523 10523
10599 10598 10596 10592 10589 10586 10583 10582 10579 10576 10574 10571 10570 10568 10566 10564 10563 10562 10559 10557 10555 10554 10556 10557 10558 10559 10559 10558 10558 10559 10560 10559 10558 10557 10555 10553 10553 10554 10548 10543 10541 10536 10536 10535 10534 10527 10534 10533 10532 10535 10538 10535 10536 10539
10604 10602 10600 10597 10594 10591 10589 10587 10584 10582 10579 10577 10576 10574 10569 10568 10568 10567 10565 10563 10559 10557 10556 10557 10558 10559 10558 10558 10558 10559 10560 10560 10560 10559 10560 10557 10557 10556 10556 10552 10549 10548 10545 10542 10544 10546 10545 10545 10549 10549 10553 10557 10555 10559
10605 10604 10602 10600 10598 10595 10593 10591 10588 10586 10583 10581 10579 10576 10574 10573 10570 10568 10566 10564 10562 10559 10558 10557 10556 10556 10556 10557 10557 10557 10559 10560 10561 10562 10560 10560 10560 10558 10558 10557 10556 10553 10552 10550 10549 10549 10549 10552 10555 10555 10557 10559 10563 10565
10605 10604 10602 10601 10599 10597 10594 10592 10590 10588 10586 10583 10581 10578 10575 10573 10571 10568 10566 10564 10562 10560 10558 10557 10557 10555 10552 10551 10553 10555 10556 10557 10558 10560 10560 10559 10560 10561 10560 10559 10559 10559 10557 10555 10554 10553 10553 10554 10557 10560 10560 10563 10561 10561
10604 10603 10601 10599 10599 10597 10594 10592 10590 10587 10584 10581 10578 10576 10574 10571 10568 10565 10564 10562 10560 10557 10556 10555 10553 10552 10551 10551 10550 10549 10549 10549 10549 10551 10555 10556 10557 10557 10559 10560 10560 10559 10560 10556 10555 10554 10556 10558 10560 10560 10561 10562 10563 10565
10602 10602 10600 10596 10595 10594 10591 10588 10587 10584 10580 10578 10575 10571 10568 10566 10563 10561 10558 10556 10553 10554 10551 10549 10548 10545 10545 10546 10545 10545 10545 10545 10544 10545 10546 10548 10549 10550 10552 10554 10556 10557 10556 10556 10554 10554 10552 10552 10554 10557 10558 10560 10561 10563
10600 10599 10598 10595 10591 10590 10588 10585 10582 10579 10576 10572 10568 10564 10561 10559 10556 10554 10552 10548 10544 10543 10543 10542 10543 10541 10540 10540 10539 10538 10538 10538 10538 10538 10537 10537 10538 10539 10541 10544 10546 10546 10547 10551 10551 10550 10551 10551 10551 10551 10553 10555 10556 10556
10597 10597 10596 10594 10591 10588 10585 10582 10579 10576 10573 10568 10564 10561 10556 10552 10550 10547 10545 10541 10538 10536 10533 10531 10531 10530 10530 10528 10529 10529 10529 10528 10527 10526 10525 10525 10526 10526 10528 10531 10533 10535 10536 10538 10538 10542 10541 10542 10544 10544 10544 10547 10548 10548